IPEX

Satellite information

Favourite Embed

Satellite Type and Status

PAYLOADIN ORBIT

Key statistics

Satellite IPEX at a glance.

Uptime

4176

Days in orbit

Revolutions

≈ 15.0

Per day

Orbit

SSO

Sun Synchronous Orbit

Inclination

120.5

Latest

Satellite identification and parameters

Extended collection of information and parameters for IPEX.

Object identification

Identified? True

Debris? False

Object name: IPEX

International designator: 2013-072K

Object number (NORAD): 39471

Object ID (CCSDS): 39471

Country: UNITED STATES OF AMERICA (US)

Current information (Y/N): Y

RCS size: SMALL

Orbital parameters

Period: 96.043 minutes

Inclination: 120.4668 deg

SMA: 6947.11 km

Apoapsis: 694.777 km

Periapsis: 443.172 km

RAAN: 224.2087 deg

Eccentricy: 0.0181086

Argument of periapsis: 295.2781 deg

Mean anomaly: 62.962 deg

Mean motion: 14.99327543 rev/day

Mean motion (dot): 0.00004851 rev/day2

B* drag term: 0.00030099 1/REarth

Two-line elements (TLE)

Creation date: May 12, 2025, 2:31 a.m.

Reference frame: TEME

Reference center: EARTH

Epoch: May 11, 2025, 9:56 p.m. UTC

TLE line 0: 0 IPEX

TLE line 1: 1 39471U 13072K 25131.91451399 .00004851 00000-0 30099-3 0 9992

TLE line 2: 2 39471 120.4668 224.2087 0181086 295.2781 62.9620 14.99327543 54883

Live tracking on map

Real-time ground track for satellite IPEX.

In-orbit conjunctions

There are no conjunctions computed for IPEX, at the moment. Check back to stay up to date, as we update our databases every day.

Go to all conjunctions

Associated space launch

Classified payload for the U.S. National Reconnaissance Office.

IPEX was lifted into orbit during the mission ‘Atlas V 501 | NROL-39 (USA-247)’, on board a Atlas V 501 space rocket.

The launch took place on Dec. 6, 2013, 7:14 a.m. from Space Launch Complex 3E.

For more information about the launch, click the button.

Launch to space Atlas V 501 | NROL-39 (USA-247)
Atlas V 501 | NROL-39 (USA-247)

Agency: N/A

Status: Launch Successful

Launch date: Dec. 6, 2013, 7:14 a.m. UTC

Rocket: Atlas V 501

Launch pad: Space Launch Complex 3E

Location: Vandenberg SFB, CA, USA

...

Latest news about this satellite

There are no fresh news available about this satellite. Check back as we update our databases every day.


Newsletter sign-up

Weekly statistics, charts and insights to help you stay on top of the space industry.